User: anonymous   Login
Location: Unspecified
(0.0000°N, 0.0000°E)
Time: 22:41:31
(UTC+00:00)
Language:

CICERO 6 - Orbit

View from above orbital plane
View from above orbital plane
View from above satellite
View from above satellite

Ground track
Ground track

The orbit data is extracted from the following two-line orbital elements,

1 42793U 17036AE  18265.73405679 +.00000808 +00000-0 +38325-4 0  9996
2 42793 097.3906 324.0398 0012179 096.1992 264.0632 15.22059834069430
Epoch (UTC): 22 September 2018 17:37:02
Eccentricity: 0.0012179
inclination: 97.3906°
perigee height: 491 km
apogee height: 508 km
right ascension of ascending node: 324.0398°
argument of perigee: 96.1992°
revolutions per day: 15.22059834
mean anomaly at epoch: 264.0632°
orbit number at epoch: 6943

The dashed part of the orbit path shows where the satellite is in the earth's shadow,  

DLR